This is the latest recevied weather packets stored in our database for station/object DG5TS-10. If no packets are shown the sender has not sent any weather packets the latest 10 day(s).
| Time | Temp. | Humidity | Pressure | Rain* | Wind** | Luminosity | Snow |
|---|---|---|---|---|---|---|---|
| 1777967876 | 20° C | 40% | 1011.1 hPa | - | - | - | - |
| 1777966821 | 19.44° C | 41% | 1011.1 hPa | - | - | - | - |
| 1777965766 | 19.44° C | 40% | 1011.2 hPa | - | - | - | - |
| 1777964710 | 18.89° C | 40% | 1011.2 hPa | - | - | - | - |
| 1777963656 | 19.44° C | 40% | 1011.2 hPa | - | - | - | - |
| 1777962601 | 18.89° C | 40% | 1011.3 hPa | - | - | - | - |
| 1777961546 | 18.89° C | 41% | 1011.2 hPa | - | - | - | - |
| 1777960562 | 18.33° C | 41% | 1011.3 hPa | - | - | - | - |
| 1777958745 | 18.33° C | 41% | 1011.2 hPa | - | - | - | - |
| 1777957845 | 18.33° C | 41% | 1011.3 hPa | - | - | - | - |
| 1777956945 | 17.78° C | 42% | 1011.3 hPa | - | - | - | - |
| 1777956044 | 17.78° C | 42% | 1011.4 hPa | - | - | - | - |
| 1777955145 | 17.78° C | 42% | 1011.5 hPa | - | - | - | - |
| 1777954244 | 17.78° C | 42% | 1011.4 hPa | - | - | - | - |
| 1777953344 | 17.78° C | 42% | 1011.5 hPa | - | - | - | - |
| 1777952444 | 17.78° C | 42% | 1011.5 hPa | - | - | - | - |
| 1777951544 | 17.78° C | 42% | 1011.6 hPa | - | - | - | - |
| 1777950644 | 17.78° C | 42% | 1011.5 hPa | - | - | - | - |
| 1777949744 | 17.78° C | 42% | 1011.6 hPa | - | - | - | - |
| 1777948843 | 17.78° C | 41% | 1011.8 hPa | - | - | - | - |
| 1777947943 | 17.78° C | 40% | 1011.9 hPa | - | - | - | - |
| 1777947043 | 18.33° C | 39% | 1011.9 hPa | - | - | - | - |
| 1777946143 | 18.33° C | 39% | 1012.1 hPa | - | - | - | - |
| 1777945243 | 18.33° C | 39% | 1012.1 hPa | - | - | - | - |
| 1777944343 | 18.33° C | 39% | 1012.1 hPa | - | - | - | - |
* Rain since midnight (hover to see other rain measurements)
** Current wind speed in m/s (hover to see current wind gust speed)